SL-3 R/B, 11166

Orbit data source: Space-Track

SL-3 R/B, 11166 is space debris in LEO originally from a launch on Sat, 23 Dec 1978 UTC launched from the Plesetsk Missile And Space Complex (PKMTR). Debris objects in space refer to the collection of defunct objects orbiting the Earth. Examples of debris include non-operational satellites, rocket bodies, and fragments generated from explosions, collisions, or faulty payload assembly.

Loading next visibility...
Identifier
11166, 1978-121B
Orbit
LEO
Country
Flag of CISCIS
Related business
Manufacturer
Progress
Mission
Spacecraft
Bus & Motor
BLOK-E, Unknown motor
Mass
1,440 kg wet, 1,440 kg dry
Launch date (UTC)
1978-12-23 (47 years ago)
Launch vehicle
Unknown
Launch site
Plesetsk Missile And Space Complex (PKMTR)
Object type
Payload
Rocket body
Debris
Shape & HBR
Unknown
Radar Cross Section
Large (>1 m²)

Expand to show TLE details & history
Last TLE update: 2 days ago

TLE from 2 days ago
0 SL-3 R/B
1 11166U 78121B   26171.43255300 -.00000002  00000-0 -74617-5 0  9997
2 11166  81.2379 197.6080 0064804 253.1932 106.2126 14.14274442448675
Epoch: 2026-06-20T10:22Z
TLE epoch observation values (Epoch: 2026-06-20T10:22:52.579Z)
Latitude
0.00001°
Longitude
133.24167°
Altitude
861.037 km
Speed
7.415 km/s
True Right ascension
13h 10m 25s
True Declination
0° 00' 00"
Sunlit
Object was in daylight at epoch
Visualization orbit readout
Latitude
Unknown
Longitude
Unknown
Altitude
Unknown
Speed
Unknown
Apparent Right ascension
Unknown
Apparent Declination
Unknown
Sunlit
N/A
Visualization observer readout
Local Sidereal Time
23:07:57
Azimuth
Unknown
Elevation
Unknown
Doppler factor
Unknown
Orbital elements
Apogee altitude
888.739 km
Perigee altitude
795.161 km
Semi-major axis
7,220.087 km
Eccentricity
0.00648
Inclination
81.2379°
RAAN
197.608°
Arg. of periapsis
253.1932°
True anomaly
106.92404°
Mean anomaly
106.2126°
Eccentric anomaly
106.56848°
Mean motion
3.53777 °/min
Orbital period
101.76 mins
BSTAR
-0.0000074617
Loading maneuver chart data...
Computing Atmospheric mass density...
Loading historical data...
Loading historical data...
Loading historical data...
Loading historical data...
Loading historical data...
Loading historical data...
Loading historical data...
Other satellites on launch #121 in the year 1978 (1978-12-23 UTC)

Documentation

Showing up to 5 results
|